User: anonymous   Login
Location: Fremont
(37.5480°N, 121.9880°W)
Time: 01:25:18
(UTC-07:00)
Language:

Cosmos 1766 - Orbit

View from above orbital plane
View from above orbital plane
View from above satellite
View from above satellite

Ground track
Ground track

The orbit data is extracted from the following two-line orbital elements,

1 16881U 86055A   15184.87195087  .00000972  00000-0  60600-4 0  9996
2 16881 082.5073 001.6843 0015447 021.6684 338.5195 15.08329858573683
Epoch (UTC): 03 July 2015 20:55:36
Eccentricity: 0.0015447
inclination: 82.5073°
perigee height: 530 km
apogee height: 552 km
right ascension of ascending node: 1.6843°
argument of perigee: 21.6684°
revolutions per day: 15.08329858
mean anomaly at epoch: 338.5195°
orbit number at epoch: 57368

The dashed part of the orbit path shows where the satellite is in the earth's shadow,  

DLR